Date String (YYYY-MM-DD hh:mm:ss) UTC,Instrument flags,absolute air pressure of the measurement (hPa),sample flow rate (lpm),inlet stack bypass flow (lpm),air temperature of the measurement (°C),ambient temperature measured by the external sensor (°C),aerosol sample conditioner tube jacket temperature (°C),OPC LED temperature (°C),internal box temperature (°C),relative humidity of the measurement (%),span deviation,mass concentration of particles derived from Lorenz-Mie calculation of OPC scattering (μg/m³),mass concentration of particles derived from Lorenz-Mie calculation of OPC scattering (μg/m³),mass concentration of particles derived from Lorenz-Mie calculation of OPC scattering (μg/m³)
DateTimeUTC,F1_M11,P_M11,Q1_M11,Q2_M11,T1_M11,T2_M11,T3_M11,T4_M11,T5_M11,U1_M11,ZSPAN_M11,X0_M11,X2_M11,X1_M11
2023-08-15 21:00:00,SystemResetWarning,0836.2,4.99,000.00,028.9,027.4,000.0,037.0,030.6,17.8,-000.1,0014.13,0004.60,0003.84
2023-08-15 21:01:00,SystemResetWarning,0836.2,4.98,000.00,028.8,025.8,000.0,036.9,030.3,18.7,0000.0,0015.67,0004.63,0003.85
2023-08-15 21:02:00,SystemResetWarning,0836.2,5.01,000.00,028.7,024.8,000.0,036.8,030.0,18.6,0000.0,0016.49,0004.66,0003.86
2023-08-15 21:03:00,SystemResetWarning,0836.2,5.01,000.00,028.7,025.2,000.0,036.8,030.0,18.5,0000.0,0017.09,0004.71,0003.88
2023-08-15 21:04:00,SystemResetWarning,0836.2,5.00,000.00,028.6,025.5,000.0,036.9,030.0,18.2,-000.2,0018.06,0004.70,0003.89
2023-08-15 21:05:00,SystemResetWarning,0836.2,5.01,000.00,028.6,026.0,000.0,036.9,030.1,18.1,-000.0,0018.89,0004.72,0003.91
2023-08-15 21:06:00,SystemResetWarning,0836.2,5.00,000.00,028.7,026.4,000.0,036.9,030.3,17.9,-000.0,0018.86,0004.76,0003.92
2023-08-15 21:07:00,SystemResetWarning,0836.2,5.00,000.00,028.7,026.8,000.0,037.0,030.4,17.8,-000.2,0018.99,0004.82,0003.93
2023-08-15 21:08:00,SystemResetWarning,0836.2,5.00,000.00,028.8,027.1,000.0,037.0,030.5,18.1,-000.3,0019.72,0004.84,0003.94
2023-08-15 21:09:00,SystemResetWarning,0836.2,5.01,000.00,028.8,027.5,000.0,037.0,030.6,17.7,-000.1,0020.53,0004.83,0003.94
2023-08-15 21:10:00,SystemResetWarning,0836.2,5.00,000.00,028.9,027.5,000.0,037.0,030.6,17.7,0000.0,0019.14,0004.82,0003.92
2023-08-15 21:11:00,SystemResetWarning,0836.1,4.98,000.00,028.9,026.0,000.0,036.9,030.3,17.9,0000.0,0019.05,0004.79,0003.90
2023-08-15 21:12:00,SystemResetWarning,0836.1,5.02,000.00,028.8,024.8,000.0,036.9,030.1,18.2,0000.0,0017.23,0004.79,0003.90
2023-08-15 21:13:00,SystemResetWarning,0836.1,5.00,000.00,028.7,025.1,000.0,036.8,030.0,18.3,0000.0,0016.80,0004.84,0003.90
2023-08-15 21:14:00,SystemResetWarning,0836.1,4.99,000.00,028.7,025.4,000.0,036.9,030.0,18.7,0000.0,0016.48,0004.84,0003.91
2023-08-15 21:15:00,SystemResetWarning,0836.1,5.00,000.00,028.6,025.9,000.0,036.9,030.1,18.6,0000.0,0015.94,0004.88,0003.92
2023-08-15 21:16:00,SystemResetWarning,0836.1,5.01,000.00,028.7,026.3,000.0,036.9,030.2,19.0,0000.0,0015.63,0004.92,0003.93
2023-08-15 21:17:00,SystemResetWarning,0836.1,5.00,000.00,028.7,026.7,000.0,037.0,030.4,18.5,0000.0,0015.97,0004.98,0003.94
2023-08-15 21:18:00,SystemResetWarning,0836.1,5.00,000.00,028.8,027.1,000.0,037.0,030.5,18.4,0000.0,0015.63,0005.02,0003.95
2023-08-15 21:19:00,SystemResetWarning,0836.1,5.00,000.00,028.8,027.4,000.0,037.0,030.6,18.7,0000.0,0015.16,0005.01,0003.94
2023-08-15 21:20:00,SystemResetWarning,0836.1,4.99,000.00,028.9,027.0,000.0,037.0,030.5,19.0,0000.0,0013.94,0005.04,0003.94
2023-08-15 21:21:00,SystemResetWarning,0836.1,5.00,000.00,028.8,025.3,000.0,036.9,030.2,18.8,0000.0,0013.63,0005.04,0003.95
2023-08-15 21:22:00,SystemResetWarning,0836.1,5.02,000.00,028.7,024.8,000.0,036.8,030.0,18.9,0000.0,0014.16,0005.09,0003.95
2023-08-15 21:23:00,SystemResetWarning,0836.1,5.00,000.00,028.7,025.2,000.0,036.8,030.0,18.4,0000.0,0014.36,0005.09,0003.93
2023-08-15 21:24:00,SystemResetWarning,0836.0,5.00,000.00,028.6,025.6,000.0,036.9,030.0,18.3,0000.0,0014.61,0005.13,0003.91
2023-08-15 21:25:00,SystemResetWarning,0836.0,5.00,000.00,028.6,026.1,000.0,036.9,030.1,18.2,0000.0,0014.01,0005.12,0003.90
2023-08-15 21:26:00,SystemResetWarning,0835.9,5.00,000.00,028.7,026.5,000.0,036.9,030.3,18.1,0000.0,0014.12,0005.19,0003.90
2023-08-15 21:27:00,SystemResetWarning,0835.9,5.00,000.00,028.7,026.9,000.0,037.0,030.4,18.1,0000.0,0014.04,0005.16,0003.88
2023-08-15 21:28:00,SystemResetWarning,0835.9,5.00,000.00,028.8,027.2,000.0,037.0,030.5,18.4,0000.0,0013.46,0005.12,0003.87
2023-08-15 21:29:00,SystemResetWarning,0835.9,5.00,000.00,028.8,027.5,000.0,037.0,030.6,18.5,0000.0,0014.27,0005.07,0003.85
2023-08-15 21:30:00,SystemResetWarning,0835.9,4.98,000.00,028.8,026.3,000.0,037.0,030.3,18.0,0000.3,0014.29,0005.01,0003.85
2023-08-15 21:31:00,SystemResetWarning,0835.9,5.01,000.00,028.8,024.9,000.0,036.9,030.0,18.4,0000.5,0014.57,0004.98,0003.85
2023-08-15 21:32:00,SystemResetWarning,0835.8,5.02,000.00,028.7,025.0,000.0,036.8,030.0,18.6,0001.7,0014.99,0004.97,0003.86
2023-08-15 21:33:00,SystemResetWarning,0835.8,5.00,000.00,028.6,025.4,000.0,036.9,030.0,18.9,0000.4,0015.14,0004.95,0003.85
2023-08-15 21:34:00,SystemResetWarning,0835.8,5.00,000.00,028.6,025.8,000.0,036.9,030.0,18.8,0000.1,0015.20,0004.98,0003.87
2023-08-15 21:35:00,SystemResetWarning,0835.9,5.00,000.00,028.6,026.2,000.0,036.9,030.2,18.1,0000.0,0015.35,0004.94,0003.90
2023-08-15 21:36:00,SystemResetWarning,0835.9,5.00,000.00,028.7,026.7,000.0,037.0,030.3,18.2,0000.0,0016.76,0004.97,0003.91
2023-08-15 21:37:00,SystemResetWarning,0835.9,5.00,000.00,028.7,027.0,000.0,037.0,030.5,17.7,0000.1,0016.96,0004.93,0003.91
2023-08-15 21:38:00,SystemResetWarning,0835.9,5.00,000.00,028.8,027.3,000.0,037.0,030.6,17.4,0000.9,0017.42,0004.98,0003.93
2023-08-15 21:39:00,SystemResetWarning,0835.9,4.99,000.00,028.9,027.2,000.0,037.0,030.5,17.2,0001.3,0018.86,0005.01,0003.95
2023-08-15 21:40:00,SystemResetWarning,0835.8,4.99,000.00,028.8,025.6,000.0,036.9,030.2,17.7,0002.4,0019.17,0005.07,0003.96
2023-08-15 21:41:00,SystemResetWarning,0835.8,5.01,000.00,028.7,024.8,000.0,036.8,030.0,17.5,0002.7,0020.72,0005.13,0003.97
2023-08-15 21:42:00,SystemResetWarning,0835.8,5.02,000.00,028.7,025.2,000.0,036.8,030.0,17.5,0002.9,0022.23,0005.18,0004.00
2023-08-15 21:43:00,SystemResetWarning,0835.8,5.00,000.00,028.6,025.6,000.0,036.9,030.0,17.7,0002.9,0022.33,0005.22,0004.00
2023-08-15 21:44:00,SystemResetWarning,0835.8,5.00,000.00,028.6,026.0,000.0,036.9,030.1,17.7,0002.8,0021.66,0005.24,0004.03
2023-08-15 21:45:00,SystemResetWarning,0835.8,5.00,000.00,028.7,026.4,000.0,036.9,030.3,18.0,0002.6,0022.47,0005.21,0004.03
2023-08-15 21:46:00,SystemResetWarning,0835.9,5.00,000.00,028.7,026.8,000.0,037.0,030.4,17.9,0001.0,0022.69,0005.25,0004.03
2023-08-15 21:47:00,SystemResetWarning,0835.9,5.00,000.00,028.8,027.2,000.0,037.0,030.5,17.8,0000.0,0022.25,0005.26,0004.02
2023-08-15 21:48:00,SystemResetWarning,0835.9,5.00,000.00,028.8,027.5,000.0,037.0,030.6,17.2,0000.0,0022.68,0005.23,0004.01
2023-08-15 21:49:00,SystemResetWarning,0835.9,5.00,000.00,028.9,027.7,000.0,037.1,030.7,17.4,0000.0,0022.33,0005.25,0004.01
2023-08-15 21:50:00,SystemResetWarning,0835.8,4.98,000.00,028.9,027.0,000.0,037.0,030.6,17.2,0000.0,0021.23,0005.27,0004.00
2023-08-15 21:51:00,SystemResetWarning,0835.8,5.00,000.00,028.8,025.3,000.0,036.9,030.2,17.2,0000.0,0020.22,0005.24,0004.00
2023-08-15 21:52:00,SystemResetWarning,0835.8,5.02,000.00,028.8,025.0,000.0,036.9,030.1,17.0,0000.0,0018.58,0005.23,0003.99
2023-08-15 21:53:00,SystemResetWarning,0835.8,5.01,000.00,028.7,025.4,000.0,036.9,030.0,17.1,0000.0,0016.99,0005.23,0003.98
2023-08-15 21:54:00,SystemResetWarning,0835.8,4.99,000.00,028.7,025.8,000.0,036.9,030.1,17.4,0000.0,0016.06,0005.21,0003.96
2023-08-15 21:55:00,SystemResetWarning,0835.8,5.00,000.00,028.7,026.3,000.0,037.0,030.3,18.2,0000.0,0016.29,0005.19,0003.95
2023-08-15 21:56:00,SystemResetWarning,0835.8,5.00,000.00,028.8,026.7,000.0,037.0,030.4,17.7,0000.0,0016.57,0005.23,0003.94
2023-08-15 21:57:00,SystemResetWarning,0835.8,5.00,000.00,028.8,027.0,000.0,037.0,030.5,17.8,0000.0,0017.24,0005.20,0003.94
2023-08-15 21:58:00,SystemResetWarning,0835.8,4.99,000.00,028.9,027.4,000.0,037.1,030.6,18.1,0000.0,0018.00,0005.18,0003.94
2023-08-15 21:59:00,SystemResetWarning,0835.8,4.99,000.00,028.9,027.5,000.0,037.1,030.7,17.9,0000.0,0017.78,0005.24,0003.95
